星链-3640 (STARLINK-3640 )

导读

STARLINK-3640是美国太空探索技术公司SpaceX星链星座的卫星,于2022年3月9日发射,属于星链低轨互联网星座组网卫星。星链星座旨在构建全球卫星互联网,为全球提供高速低延迟的网络接入服务,该卫星入轨后参与星座组网,推进全球覆盖的网络服务布局。

Basic Information
目录编号:
51988
目录名称:
STARLINK-3640
国际标识:
2022-025AJ
轨道中心:
EARTH
卫星名称:
星链-3640
卫星全名:
星链-3640 (STARLINK-3640 )
卫星状态:
在轨 (已飞行1640 天)
发射日期:
2022-03-09 UTC
国别 :
美国 (US)
星等 :
--
Orbit Information
数据来源 国际轨道数据
星历时间: 2026-09-04T01:24:27+0800
12小时前
查看轨道信息
半长轴: 6848.844km
偏心率: 0.0001532
轨道倾角: 53.158°
近地点辐角 99.618°
升交点赤经 309.962°
平近点角 260.499°
近地点: 469.657km
远地点: 471.757km
周期: 94.012分钟
每日圈数: 15.317114
Detailed Information
固有亮度:
5
最大亮度:
2.5
卫星平台:
Starlink v1.5
覆盖范围:
全球
运营商:
太空探索技术公司
运营商所在国:
美国
制造商(研发单位):
太空探索技术公司
制造商所在国:
美国
使用方式:
暂无
Satellite Introduction
星链(Starlink)计划是由太空探索技术公司(SpaceX)提出的一个巨型低轨卫星互联网星座项目,计划在2019年至2024年间在太空搭建由约1.2万颗卫星组成的“星链”网络,其中1584颗将部署在地球上空550千米处的近地轨道,并从2020年开始工作。该卫星仍在工作。
2D Orbit Map
3D Orbit Map
Orbit Altitude Analysis Chart
Orbit Inclination Analysis Chart
Orbit Comprehensive Analysis Chart
View Comprehensive Chart
Conjunction Data List
Event ID Objects TCA Miss Dist (km) Collision Risk Probability Collision Risk Index (CRI) Action
CDM_260904-120605-198806-518721
2026-09-04T
12:06:53+0000
2.301 km
极远距离
2.055687E-6 低风险 0.41
CDM_260903-061505-198806-942121
2026-09-03T
06:15:26+0000
2.457 km
极远距离
1.78795E-6 低风险 0.4
CDM_260904-182305-198806-866621
2026-09-04T
18:23:54+0000
2.515 km
极远距离
1.73264E-6 低风险 0.4
CDM_260903-060605-198806-779822
2026-09-03T
06:06:38+0000
2.547 km
极远距离
1.581665E-6 低风险 0.39
CDM_260905-134205-198805-305121
2026-09-05T
13:42:20+0000
2.672 km
极远距离
1.469865E-6 低风险 0.38
CDM_260903-232505-198806-882021
2026-09-03T
23:25:23+0000
2.744 km
极远距离
1.468624E-6 低风险 0.38
CDM_260904-211905-198806-912721
2026-09-04T
21:19:17+0000
2.754 km
极远距离
1.448141E-6 低风险 0.38
CDM_260903-231705-198806-488021
OBJECT E (64880)
2026-09-03T
23:17:50+0000
2.685 km
极远距离
1.336842E-6 低风险 0.38
CDM_260904-171905-198806-106321
2026-09-04T
17:19:46+0000
2.263 km
极远距离
9.148298E-7 极低风险 0.34